Boone, IA

8:06 PM CST on February 09, 2016 (GMT -0600)
Boone Municipal

Weather History for KBNW - November, 2011

Change the Weather History Date:

Friday, November 18, 2011

  Actual Average Record
Temperature  
Mean Temperature 44 °F -  
Max Temperature 53 °F 49 °F 77 °F (1999)
Min Temperature 35 °F 25 °F 6 °F (1989)
Degree Days  
Heating Degree Days 21    
Moisture  
Dew Point 28 °F    
Average Humidity 58    
Maximum Humidity 75    
Minimum Humidity 41    
Precipitation  
Precipitation 0.00 in - - ()
Sea Level Pressure  
Sea Level Pressure 29.76 in    
Wind  
Wind Speed 17 mph (SSW)    
Max Wind Speed 24 mph    
Max Gust Speed 33 mph    
Visibility 10 miles    
Events      
Averages and records for this station are not official NWS values.
T = Trace of Precipitation, MM = Missing Value Source: NWS Daily Summary

Daily Weather History Graph

Daily Weather History Graph

Search for Another Location

Airport or City:

Trip Planner

Search our weather history database for the weather conditions in past years. The results will help you decide how hot, cold, wet, or windy it might be!

Date:

Astronomy

Nov. 18, 2011 Rise Set
Actual Time 7:08 AM CST 4:51 PM CST
Civil Twilight 6:38 AM CST 5:22 PM CST
Nautical Twilight 6:04 AM CST 5:56 PM CST
Astronomical Twilight 5:31 AM CST 6:29 PM CST
Moon No Moon Rise 12:45 PM CST (11/18)
Length of Visible Light 10h 43m
Length of Day
9h 43m
Waning Gibbous, 49% of the Moon is Illuminated
Nov 18
Waning Gibbous
Nov 25
New
Dec 2
First Quarter
Dec 10
Full
Dec 17
Last Quarter

Hourly Weather History & Observations

Time (CST) Temp. Windchill Dew Point Humidity Pressure Visibility Wind Dir Wind Speed Gust Speed Precip Events Conditions
12:15 AM 35.6 °F 25.9 °F 23.0 °F 60% 29.92 in 10.0 mi South 16.1 mph 23.0 mph N/A   Clear
12:35 AM 35.6 °F 25.5 °F 23.0 °F 60% 29.91 in 10.0 mi South 17.3 mph 24.2 mph N/A   Clear
12:55 AM 35.6 °F 25.5 °F 23.0 °F 60% 29.90 in 10.0 mi South 17.3 mph 25.3 mph N/A   Clear
1:15 AM 35.6 °F 24.8 °F 23.0 °F 60% 29.89 in 10.0 mi South 19.6 mph 25.3 mph N/A   Clear
1:35 AM 35.6 °F 25.2 °F 24.8 °F 65% 29.88 in 10.0 mi South 18.4 mph 26.5 mph N/A   Clear
2:35 AM 35.6 °F 25.9 °F 24.8 °F 65% 29.86 in 10.0 mi South 16.1 mph 28.8 mph N/A   Clear
2:55 AM 35.6 °F 26.2 °F 24.8 °F 65% 29.85 in 10.0 mi South 15.0 mph 25.3 mph N/A   Clear
3:15 AM 35.6 °F 25.2 °F 23.0 °F 60% 29.84 in 10.0 mi South 18.4 mph 32.2 mph N/A   Clear
3:35 AM 35.6 °F 24.8 °F 23.0 °F 60% 29.84 in 10.0 mi South 19.6 mph 26.5 mph N/A   Clear
3:55 AM 37.4 °F 28.2 °F 24.8 °F 60% 29.84 in 10.0 mi SSW 16.1 mph 31.1 mph N/A   Clear
4:15 AM 35.6 °F 25.2 °F 24.8 °F 65% 29.83 in 10.0 mi SSW 18.4 mph 26.5 mph N/A   Clear
4:35 AM 35.6 °F 24.2 °F 24.8 °F 65% 29.82 in 10.0 mi SSW 21.9 mph 27.6 mph N/A   Clear
4:55 AM 37.4 °F 27.2 °F 24.8 °F 60% 29.82 in 10.0 mi SSW 19.6 mph 28.8 mph N/A   Clear
5:15 AM 35.6 °F 24.5 °F 24.8 °F 65% 29.81 in 10.0 mi SSW 20.7 mph 28.8 mph N/A   Clear
5:35 AM 35.6 °F 24.0 °F 24.8 °F 65% 29.81 in 10.0 mi South 23.0 mph 26.5 mph N/A   Clear
5:55 AM 35.6 °F 25.2 °F 24.8 °F 65% 29.79 in 10.0 mi SSW 18.4 mph 26.5 mph N/A   Clear
6:15 AM 35.6 °F 24.2 °F 24.8 °F 65% 29.80 in 10.0 mi SSW 21.9 mph 27.6 mph N/A   Clear
6:35 AM 35.6 °F 24.8 °F 24.8 °F 65% 29.79 in 10.0 mi SSW 19.6 mph 26.5 mph N/A   Clear
6:55 AM 35.6 °F 25.2 °F 24.8 °F 65% 29.80 in 10.0 mi SSW 18.4 mph 26.5 mph N/A   Clear
7:15 AM 35.6 °F 24.8 °F 24.8 °F 65% 29.79 in 10.0 mi SSW 19.6 mph 29.9 mph N/A   Clear
7:35 AM 37.4 °F 27.2 °F 26.6 °F 65% 29.79 in 10.0 mi South 19.6 mph 29.9 mph N/A   Clear
7:55 AM 37.4 °F 27.5 °F 26.6 °F 65% 29.79 in 10.0 mi SSW 18.4 mph 28.8 mph N/A   Clear
8:15 AM 37.4 °F 27.5 °F 26.6 °F 65% 29.80 in 10.0 mi SSW 18.4 mph 28.8 mph N/A   Clear
8:35 AM 37.4 °F 27.8 °F 26.6 °F 65% 29.80 in 10.0 mi SSW 17.3 mph 25.3 mph N/A   Clear
8:55 AM 39.2 °F 30.2 °F 26.6 °F 61% 29.80 in 10.0 mi SW 17.3 mph 24.2 mph N/A   Clear
9:15 AM 41.0 °F 32.8 °F 26.6 °F 57% 29.79 in 10.0 mi SW 16.1 mph 27.6 mph N/A   Clear
9:35 AM 42.8 °F 34.0 °F 26.6 °F 53% 29.78 in 10.0 mi SSW 20.7 mph 25.3 mph N/A   Clear
9:55 AM 42.8 °F 35.1 °F 26.6 °F 53% 29.77 in 10.0 mi SW 16.1 mph 29.9 mph N/A   Clear
10:15 AM 42.8 °F 34.3 °F 26.6 °F 53% 29.77 in 10.0 mi SW 19.6 mph 31.1 mph N/A   Clear
10:35 AM 44.6 °F 36.6 °F 28.4 °F 53% 29.76 in 10.0 mi SSW 19.6 mph 28.8 mph N/A   Clear
10:55 AM 44.6 °F 36.1 °F 28.4 °F 53% 29.75 in 10.0 mi SSW 21.9 mph 28.8 mph N/A   Clear
11:35 AM 46.4 °F 39.0 °F 28.4 °F 50% 29.73 in 10.0 mi SSW 19.6 mph 27.6 mph N/A   Clear
11:55 AM 50.0 °F - 28.4 °F 43% 29.71 in 10.0 mi SSW 21.9 mph 33.4 mph N/A   Clear
12:15 PM 50.0 °F - 28.4 °F 43% 29.71 in 10.0 mi SSW 18.4 mph 32.2 mph N/A   Clear
12:35 PM 51.8 °F - 30.2 °F 44% 29.69 in 10.0 mi SSW 24.2 mph 31.1 mph N/A   Clear
12:55 PM 51.8 °F - 30.2 °F 44% 29.68 in 10.0 mi SW 21.9 mph 29.9 mph N/A   Clear
1:35 PM 53.6 °F - 30.2 °F 41% 29.68 in 10.0 mi SSW 23.0 mph 31.1 mph N/A   Clear
1:55 PM 53.6 °F - 30.2 °F 41% 29.67 in 10.0 mi SSW 23.0 mph 32.2 mph N/A   Clear
2:15 PM 53.6 °F - 30.2 °F 41% 29.67 in 10.0 mi SSW 17.3 mph 28.8 mph N/A   Clear
2:55 PM 53.6 °F - 32.0 °F 44% 29.67 in 10.0 mi SSW 21.9 mph 29.9 mph N/A   Clear
3:15 PM 53.6 °F - 32.0 °F 44% 29.67 in 10.0 mi SSW 20.7 mph 29.9 mph N/A   Clear
3:35 PM 51.8 °F - 32.0 °F 47% 29.67 in 10.0 mi SSW 19.6 mph 28.8 mph N/A   Clear
3:55 PM 51.8 °F - 32.0 °F 47% 29.67 in 10.0 mi SSW 21.9 mph 29.9 mph N/A   Clear
4:15 PM 50.0 °F - 32.0 °F 50% 29.67 in 10.0 mi SSW 15.0 mph 24.2 mph N/A   Clear
4:35 PM 50.0 °F - 32.0 °F 50% 29.68 in 10.0 mi SSW 12.7 mph 18.4 mph N/A   Clear
4:55 PM 50.0 °F - 32.0 °F 50% 29.67 in 10.0 mi SSW 9.2 mph 17.3 mph N/A   Clear
5:15 PM 50.0 °F - 32.0 °F 50% 29.68 in 10.0 mi SSW 8.1 mph - N/A   Clear
5:35 PM 48.2 °F - 32.0 °F 54% 29.70 in 10.0 mi SSW 6.9 mph - N/A   Clear
5:55 PM 46.4 °F 42.9 °F 32.0 °F 57% 29.70 in 10.0 mi South 6.9 mph - N/A   Clear
6:15 PM 46.4 °F 42.9 °F 32.0 °F 57% 29.70 in 10.0 mi South 6.9 mph - N/A   Clear
6:35 PM 42.8 °F 39.3 °F 32.0 °F 66% 29.70 in 10.0 mi South 5.8 mph - N/A   Clear
6:55 PM 41.0 °F 37.1 °F 32.0 °F 70% 29.71 in 10.0 mi South 5.8 mph - N/A   Clear
7:15 PM 37.4 °F 33.8 °F 30.2 °F 75% 29.71 in 10.0 mi SSE 4.6 mph - N/A   Clear
7:35 PM 37.4 °F 34.9 °F 30.2 °F 75% 29.72 in 10.0 mi SSE 3.5 mph - N/A   Clear
7:55 PM 37.4 °F - 30.2 °F 75% 29.72 in 10.0 mi Calm Calm - N/A   Clear
8:15 PM 37.4 °F - 30.2 °F 75% 29.73 in 10.0 mi Calm Calm - N/A   Clear
8:55 PM 41.0 °F 37.1 °F 32.0 °F 70% 29.72 in 10.0 mi South 5.8 mph - N/A   Clear
9:15 PM 41.0 °F 37.1 °F 32.0 °F 70% 29.72 in 10.0 mi South 5.8 mph - N/A   Clear
9:35 PM 37.4 °F 32.1 °F 32.0 °F 81% 29.72 in 10.0 mi South 6.9 mph - N/A   Clear
9:55 PM 37.4 °F 32.8 °F 32.0 °F 81% 29.72 in 10.0 mi South 5.8 mph - N/A   Clear
10:15 PM 35.6 °F 31.7 °F 32.0 °F 87% 29.72 in 10.0 mi SSE 4.6 mph - N/A   Clear
10:35 PM 35.6 °F 30.7 °F 30.2 °F 81% 29.72 in 10.0 mi South 5.8 mph - N/A   Clear
10:55 PM 35.6 °F 31.7 °F 30.2 °F 81% 29.72 in 10.0 mi South 4.6 mph - N/A   Clear
11:15 PM 35.6 °F 31.7 °F 30.2 °F 81% 29.71 in 10.0 mi South 4.6 mph - N/A   Clear
11:35 PM 35.6 °F 31.7 °F 32.0 °F 87% 29.71 in 10.0 mi South 4.6 mph - N/A   Clear
11:55 PM 35.6 °F 32.8 °F 32.0 °F 87% 29.72 in 10.0 mi South 3.5 mph - N/A   Clear